Change the Weather History Date:

Sunday, January 8, 2012

  Actual Average Record
Temperature  
Mean Temperature 45 °F 36 °F  
Max Temperature 52 °F 43 °F 73 °F (2008)
Min Temperature 37 °F 29 °F 0 °F (1878)
Degree Days  
Heating Degree Days 20 29  
Month to date heating degree days 191 232  
Since 1 July heating degree days 1399 1713  
Cooling Degree Days 0 0  
Month to date cooling degree days 0 0  
Year to date cooling degree days 0 0  
Moisture  
Dew Point 26 °F    
Average Humidity 48    
Maximum Humidity 59    
Minimum Humidity 36    
Precipitation  
Precipitation 0.00 in 0.09 in 2.21 in (1884)
Month to date precipitation T 0.70  
Year to date precipitation T 0.70  
Snow  
Snow 0.00 in 0.20 in 6.30 in (1988)
Month to date snowfall T 1.0  
Since 1 July snowfall T 3.8  
Snow Depth 0.00 in    
Sea Level Pressure  
Sea Level Pressure 30.25 in    
Wind  
Wind Speed 8 mph (NNW)    
Max Wind Speed 15 mph    
Max Gust Speed 21 mph    
Visibility 10 miles    
Events      
T = Trace of Precipitation, MM = Missing Value Source: NWS Daily Summary

Daily Weather History Graph

Daily Weather History Graph

Search for Another Location

Airport or City:

Trip Planner

Search our weather history database for the weather conditions in past years. The results will help you decide how hot, cold, wet, or windy it might be!

Date:

Astronomy

Jan. 08, 2012 Rise Set
Actual Time 7:26 AM EST 5:02 PM EST
Civil Twilight 6:57 AM EST 5:32 PM EST
Nautical Twilight 6:24 AM EST 6:05 PM EST
Astronomical Twilight 5:51 AM EST 6:37 PM EST
Moon 4:43 PM EST (1/8) 6:43 AM EST (1/8)
Length of Visible Light 10h 35m
Length of Day
9h 36m
Full, 100% of the Moon is Illuminated
Jan 8
Full
Jan 9
Full
Jan 16
Last Quarter
Jan 23
New
Jan 30
First Quarter

Hourly Weather History & Observations

Time (EST) Temp. Windchill Dew Point Humidity Pressure Visibility Wind Dir Wind Speed Gust Speed Precip Events Conditions
12:52 AM 48.9 °F - 23.0 °F 36% 30.08 in 10.0 mi NNW 11.5 mph - N/A   Scattered Clouds
1:52 AM 46.0 °F 43.1 °F 24.1 °F 42% 30.12 in 10.0 mi NNW 5.8 mph - N/A   Mostly Cloudy
2:52 AM 45.0 °F 39.7 °F 26.1 °F 48% 30.14 in 10.0 mi NNW 10.4 mph - N/A   Mostly Cloudy
3:52 AM 44.1 °F 39.5 °F 26.1 °F 49% 30.16 in 10.0 mi NNW 8.1 mph - N/A   Mostly Cloudy
4:52 AM 44.1 °F 41.5 °F 26.1 °F 49% 30.18 in 10.0 mi North 4.6 mph - N/A   Overcast
5:52 AM 43.0 °F - 27.0 °F 53% 30.19 in 10.0 mi Calm Calm - N/A   Overcast
6:52 AM 42.1 °F 38.4 °F 27.0 °F 55% 30.22 in 10.0 mi NNW 5.8 mph - N/A   Mostly Cloudy
7:52 AM 44.6 °F 41.4 °F 28.4 °F 53% 30.24 in 10.0 mi NNW 5.8 mph - N/A   Mostly Cloudy
8:52 AM 46.0 °F 42.5 °F 28.9 °F 51% 30.26 in 10.0 mi North 6.9 mph - N/A   Mostly Cloudy
9:52 AM 48.0 °F - 28.0 °F 46% 30.29 in 10.0 mi North 9.2 mph - N/A   Mostly Cloudy
10:52 AM 50.0 °F - 28.0 °F 43% 30.30 in 10.0 mi NNW 9.2 mph - N/A   Mostly Cloudy
11:52 AM 51.1 °F - 27.0 °F 39% 30.28 in 10.0 mi NW 12.7 mph 20.7 mph N/A   Mostly Cloudy
12:52 PM 51.1 °F - 28.0 °F 41% 30.25 in 10.0 mi North 8.1 mph 17.3 mph N/A   Mostly Cloudy
1:52 PM 51.1 °F - 27.0 °F 39% 30.25 in 10.0 mi NNW 11.5 mph 17.3 mph N/A   Mostly Cloudy
2:52 PM 51.1 °F - 26.1 °F 38% 30.26 in 10.0 mi NW 12.7 mph 18.4 mph N/A   Mostly Cloudy
3:52 PM 50.0 °F - 26.1 °F 39% 30.27 in 10.0 mi WNW 9.2 mph - N/A   Mostly Cloudy
4:52 PM 46.9 °F - 27.0 °F 46% 30.28 in 10.0 mi North 9.2 mph - N/A   Mostly Cloudy
5:52 PM 45.0 °F 40.6 °F 26.1 °F 48% 30.30 in 10.0 mi North 8.1 mph - N/A   Mostly Cloudy
6:52 PM 42.1 °F 37.7 °F 26.1 °F 53% 30.31 in 10.0 mi North 6.9 mph - N/A   Mostly Cloudy
7:52 PM 41.0 °F 35.2 °F 27.0 °F 57% 30.32 in 10.0 mi North 9.2 mph - N/A   Mostly Cloudy
8:52 PM 39.9 °F 36.7 °F 26.1 °F 58% 30.34 in 10.0 mi NNE 4.6 mph - N/A   Mostly Cloudy
9:52 PM 39.9 °F 33.4 °F 25.0 °F 55% 30.35 in 10.0 mi NNE 10.4 mph - N/A   Mostly Cloudy
10:52 PM 37.9 °F 31.5 °F 24.1 °F 57% 30.35 in 10.0 mi NNE 9.2 mph - N/A   Mostly Cloudy
11:52 PM 37.0 °F 32.4 °F 24.1 °F 59% 30.35 in 10.0 mi NE 5.8 mph - N/A   Mostly Cloudy